JBU181 KJFK-TLPL

Flight info

Callsign JBU181
Flight time N/A
Altitude 33000
Route SHIPP Y492 SQUAD/M077F330 DCT DARUX L456 HANCY/N0458F330 L456 THANK DCT ELOPO UB520 ANU UA312 FOF DCT SLU
Aircraft A321/M-SDE3FGHIRWY/LB1

Departure

Time 2026-05-09 09:40
Airport John F. Kennedy International Airport (KJFK)

Arrival

Time N/A
Airport Hewanorra International Airport (TLPL)
Time Latitude Longitude Altitude Speed Heading
2026-05-09 09:30 40.64768 -73.77574 16 ft 0 kts 301°
2026-05-09 09:32 40.64770 -73.77579 16 ft 2 kts 301°
2026-05-09 09:33 40.64780 -73.77601 17 ft 4 kts 301°
2026-05-09 09:33 40.64798 -73.77641 18 ft 6 kts 301°
2026-05-09 09:33 40.64830 -73.77665 16 ft 6 kts
2026-05-09 09:33 40.64840 -73.77635 16 ft 5 kts 92°
2026-05-09 09:34 40.64852 -73.77595 17 ft 5 kts 39°
2026-05-09 09:34 40.64888 -73.77559 17 ft 7 kts 38°
2026-05-09 09:34 40.64931 -73.77514 17 ft 8 kts 44°
2026-05-09 09:36 40.64756 -73.76789 19 ft 13 kts 30°
2026-05-09 09:36 40.64838 -73.76730 17 ft 15 kts 28°
2026-05-09 09:36 40.64939 -73.76650 16 ft 18 kts 31°
2026-05-09 09:37 40.65047 -73.76567 16 ft 18 kts 30°
2026-05-09 09:37 40.65097 -73.76470 16 ft 12 kts 107°
2026-05-09 09:37 40.65050 -73.76371 16 ft 13 kts 143°
2026-05-09 09:37 40.64969 -73.76395 15 ft 14 kts 212°
2026-05-09 09:38 40.64872 -73.76472 15 ft 19 kts 211°
2026-05-09 09:38 40.64756 -73.76563 17 ft 18 kts 210°
2026-05-09 09:38 40.64716 -73.76594 18 ft 0 kts 210°
2026-05-09 09:39 40.64706 -73.76602 18 ft 8 kts 210°
2026-05-09 09:39 40.64581 -73.76697 17 ft 33 kts 210°
2026-05-09 09:39 40.64297 -73.76913 17 ft 70 kts 211°
2026-05-09 09:39 40.63658 -73.77420 20 ft 142 kts 211°
2026-05-09 09:40 40.62652 -73.78202 219 ft 183 kts 208°
2026-05-09 09:40 40.61575 -73.79035 1204 ft 177 kts 211°
2026-05-09 09:40 40.60495 -73.79877 1698 ft 186 kts 212°
2026-05-09 09:40 40.59455 -73.80664 1918 ft 202 kts 207°
2026-05-09 09:41 40.58004 -73.80985 2082 ft 231 kts 173°
2026-05-09 09:41 40.56522 -73.79920 2350 ft 262 kts 134°
2026-05-09 09:41 40.55464 -73.77913 2972 ft 271 kts 126°
2026-05-09 09:41 40.54518 -73.75741 3647 ft 277 kts 123°
2026-05-09 09:42 40.53608 -73.73493 4359 ft 281 kts 123°
2026-05-09 09:42 40.52691 -73.71194 5032 ft 286 kts 123°
2026-05-09 09:42 40.51931 -73.69305 5600 ft 288 kts 123°
2026-05-09 09:42 40.50957 -73.66928 6340 ft 290 kts 124°
2026-05-09 09:43 40.49985 -73.64594 6990 ft 293 kts 124°
2026-05-09 09:43 40.48993 -73.62239 7639 ft 296 kts 124°
2026-05-09 09:43 40.47985 -73.59866 8283 ft 300 kts 124°
2026-05-09 09:43 40.46958 -73.57459 8936 ft 303 kts 124°
2026-05-09 09:44 40.45938 -73.55070 9573 ft 307 kts 124°
2026-05-09 09:44 40.44884 -73.52602 10184 ft 312 kts 123°
2026-05-09 09:44 40.43785 -73.50040 10348 ft 333 kts 123°
2026-05-09 09:44 40.42612 -73.47309 10488 ft 353 kts 123°
2026-05-09 09:45 40.41376 -73.44428 10668 ft 370 kts 123°
2026-05-09 09:45 40.40103 -73.41452 11127 ft 377 kts 122°
2026-05-09 09:45 40.38815 -73.38429 11671 ft 382 kts 122°
2026-05-09 09:45 40.37511 -73.35376 12213 ft 386 kts 122°
2026-05-09 09:46 40.36188 -73.32287 12788 ft 390 kts 122°
2026-05-09 09:46 40.34850 -73.29173 13356 ft 395 kts 122°
2026-05-09 09:46 40.33497 -73.26023 13905 ft 399 kts 122°
2026-05-09 09:46 40.32100 -73.22865 14397 ft 402 kts 124°
2026-05-09 09:47 40.30607 -73.19743 14889 ft 406 kts 126°
2026-05-09 09:47 40.29049 -73.16646 15381 ft 409 kts 128°
2026-05-09 09:47 40.27453 -73.13542 15872 ft 413 kts 128°
2026-05-09 09:47 40.26918 -73.12506 16036 ft 414 kts 128°
2026-05-09 09:48 40.26138 -73.11004 16281 ft 416 kts 129°
2026-05-09 09:48 40.24510 -73.07847 16761 ft 421 kts 128°
2026-05-09 09:48 40.22889 -73.04642 17243 ft 425 kts 128°
2026-05-09 09:49 40.21261 -73.01381 17729 ft 429 kts 128°
2026-05-09 09:49 40.19627 -72.98093 18203 ft 434 kts 128°
2026-05-09 09:49 40.17976 -72.94772 18624 ft 438 kts 128°
2026-05-09 09:49 40.16306 -72.91421 19047 ft 441 kts 128°
2026-05-09 09:50 40.14617 -72.88048 19473 ft 445 kts 128°
2026-05-09 09:50 40.12911 -72.84661 19896 ft 448 kts 128°
2026-05-09 09:50 40.11208 -72.81288 20317 ft 452 kts 128°
2026-05-09 09:50 40.09462 -72.77791 20739 ft 456 kts 127°
2026-05-09 09:51 40.07794 -72.74251 21147 ft 460 kts 125°
2026-05-09 09:51 40.06189 -72.70685 21545 ft 464 kts 124°
2026-05-09 09:51 40.04579 -72.67021 21937 ft 467 kts 124°
2026-05-09 09:51 40.02961 -72.63328 22322 ft 470 kts 124°
2026-05-09 09:52 40.01324 -72.59622 22695 ft 473 kts 124°
2026-05-09 09:52 39.99663 -72.55904 23077 ft 475 kts 124°
2026-05-09 09:52 39.97978 -72.52184 23448 ft 478 kts 125°
2026-05-09 09:52 39.96271 -72.48449 23788 ft 481 kts 125°
2026-05-09 09:53 39.94572 -72.44683 24109 ft 483 kts 124°
2026-05-09 09:53 39.92882 -72.40873 24424 ft 486 kts 124°
2026-05-09 09:53 39.91206 -72.37042 24735 ft 488 kts 124°
2026-05-09 09:53 39.89524 -72.33182 25045 ft 491 kts 124°
2026-05-09 09:54 39.87837 -72.29309 25353 ft 493 kts 124°
2026-05-09 09:54 39.86138 -72.25425 25646 ft 495 kts 124°
2026-05-09 09:54 39.84425 -72.21531 25956 ft 497 kts 124°
2026-05-09 09:54 39.82695 -72.17628 26263 ft 499 kts 124°
2026-05-09 09:55 39.80947 -72.13706 26566 ft 501 kts 124°
2026-05-09 09:55 39.79199 -72.09781 26853 ft 503 kts 124°